SAS105 LBSF-LOWW

Flight info

Callsign SAS105
Flight time 1h 13m
Altitude 38000
Route OGOTA T228 UTEKA DCT DONIV DCT PARAK DCT BALUX DCT TORNO DCT NATEX
Aircraft B77W/H-SDE1E2E3FGHIJ2J3J4J5M1RWXY/LB1D1

Departure

Time 2026-05-07 14:35
Airport Sofia Airport (LBSF)

Arrival

Time 2026-05-07 15:49
Airport Vienna International Airport (LOWW)
Time Latitude Longitude Altitude Speed Heading
2026-05-07 14:15 42.69135 23.41454 1757 ft 0 kts 253°
2026-05-07 14:25 42.69137 23.41464 1757 ft 3 kts 253°
2026-05-07 14:26 42.69144 23.41492 1747 ft 3 kts 253°
2026-05-07 14:26 42.69150 23.41519 1747 ft 3 kts 259°
2026-05-07 14:26 42.69149 23.41548 1747 ft 3 kts 300°
2026-05-07 14:26 42.69137 23.41572 1752 ft 3 kts 328°
2026-05-07 14:27 42.69130 23.41577 1747 ft 0 kts 341°
2026-05-07 14:28 42.69142 23.41571 1747 ft 6 kts 341°
2026-05-07 14:28 42.69220 23.41535 1748 ft 18 kts 341°
2026-05-07 14:29 42.69354 23.41521 1753 ft 20 kts
2026-05-07 14:29 42.69459 23.41580 1748 ft 17 kts 67°
2026-05-07 14:29 42.69458 23.41739 1757 ft 17 kts 94°
2026-05-07 14:29 42.69449 23.41898 1749 ft 17 kts 95°
2026-05-07 14:30 42.69439 23.42057 1756 ft 17 kts 95°
2026-05-07 14:30 42.69429 23.42216 1758 ft 17 kts 95°
2026-05-07 14:30 42.69420 23.42375 1749 ft 17 kts 94°
2026-05-07 14:30 42.69412 23.42534 1753 ft 17 kts 94°
2026-05-07 14:31 42.69404 23.42693 1751 ft 17 kts 94°
2026-05-07 14:31 42.69394 23.42852 1750 ft 17 kts 95°
2026-05-07 14:31 42.69384 23.43011 1752 ft 17 kts 94°
2026-05-07 14:31 42.69376 23.43170 1753 ft 17 kts 95°
2026-05-07 14:32 42.69366 23.43328 1757 ft 17 kts 95°
2026-05-07 14:32 42.69356 23.43488 1757 ft 17 kts 95°
2026-05-07 14:32 42.69345 23.43646 1751 ft 17 kts 95°
2026-05-07 14:32 42.69336 23.43805 1797 ft 17 kts 95°
2026-05-07 14:33 42.69364 23.43936 1801 ft 12 kts 32°
2026-05-07 14:33 42.69390 23.43946 1799 ft 0 kts 11°
2026-05-07 14:33 42.69452 23.43957 1808 ft 15 kts
2026-05-07 14:34 42.69527 23.43877 1794 ft 16 kts 277°
2026-05-07 14:34 42.69537 23.43692 1763 ft 29 kts 275°
2026-05-07 14:34 42.69563 23.43260 1759 ft 74 kts 274°
2026-05-07 14:34 42.69622 23.42249 1750 ft 138 kts 274°
2026-05-07 14:35 42.69716 23.40722 1864 ft 175 kts 275°
2026-05-07 14:35 42.69810 23.39011 2330 ft 188 kts 273°
2026-05-07 14:35 42.70112 23.37254 2813 ft 199 kts 297°
2026-05-07 14:35 42.71059 23.35878 3279 ft 204 kts 331°
2026-05-07 14:36 42.72399 23.35260 3802 ft 208 kts 348°
2026-05-07 14:36 42.73850 23.34963 4326 ft 214 kts 350°
2026-05-07 14:36 42.75346 23.34685 4867 ft 216 kts 350°
2026-05-07 14:36 42.76882 23.34408 5249 ft 233 kts 350°
2026-05-07 14:37 42.78574 23.34106 5457 ft 257 kts 350°
2026-05-07 14:37 42.82266 23.33460 6535 ft 277 kts 351°
2026-05-07 14:37 42.84208 23.33121 7107 ft 285 kts 351°
2026-05-07 14:38 42.86206 23.32856 7785 ft 292 kts 356°
2026-05-07 14:38 42.88235 23.32819 8620 ft 290 kts 358°
2026-05-07 14:38 42.90237 23.32838 9349 ft 294 kts 359°
2026-05-07 14:38 42.92298 23.32856 10065 ft 297 kts 358°
2026-05-07 14:39 42.94406 23.32864 10533 ft 312 kts 358°
2026-05-07 14:39 42.96673 23.32866 10676 ft 338 kts 358°
2026-05-07 14:39 42.99106 23.32857 10864 ft 362 kts 358°
2026-05-07 14:39 43.01703 23.32844 11132 ft 381 kts 358°
2026-05-07 14:40 43.04395 23.32828 11730 ft 392 kts 358°
2026-05-07 14:40 43.07131 23.32807 12685 ft 395 kts 358°
2026-05-07 14:40 43.09897 23.32788 13525 ft 401 kts 358°
2026-05-07 14:40 43.12677 23.32766 14352 ft 406 kts 358°
2026-05-07 14:41 43.15519 23.32745 15176 ft 410 kts 358°
2026-05-07 14:41 43.18383 23.32713 15982 ft 410 kts 356°
2026-05-07 14:41 43.21179 23.31954 16525 ft 413 kts 335°
2026-05-07 14:41 43.23640 23.29927 17277 ft 414 kts 317°
2026-05-07 14:42 43.25709 23.27208 17993 ft 415 kts 313°
2026-05-07 14:42 43.27759 23.24413 18827 ft 416 kts 313°
2026-05-07 14:42 43.29829 23.21606 19605 ft 418 kts 313°
2026-05-07 14:42 43.31918 23.18797 20320 ft 422 kts 313°
2026-05-07 14:43 43.34035 23.15969 21005 ft 427 kts 313°
2026-05-07 14:43 43.36179 23.13118 21681 ft 431 kts 313°
2026-05-07 14:43 43.38308 23.10289 22339 ft 435 kts 314°
2026-05-07 14:43 43.40323 23.07608 22895 ft 440 kts 314°
2026-05-07 14:44 43.42620 23.04555 23556 ft 445 kts 314°
2026-05-07 14:44 43.44827 23.01620 24127 ft 448 kts 314°
2026-05-07 14:44 43.47075 22.98629 24697 ft 451 kts 313°
2026-05-07 14:44 43.49338 22.95613 25212 ft 454 kts 313°
2026-05-07 14:45 43.51622 22.92566 25704 ft 459 kts 313°
2026-05-07 14:45 43.53925 22.89490 26182 ft 462 kts 313°
2026-05-07 14:45 43.56241 22.86391 26676 ft 466 kts 313°
2026-05-07 14:45 43.58575 22.83266 27171 ft 469 kts 313°
2026-05-07 14:46 43.60924 22.80119 27634 ft 472 kts 313°
2026-05-07 14:46 43.63291 22.76942 28094 ft 476 kts 312°
2026-05-07 14:46 43.65653 22.73766 28506 ft 480 kts 312°
2026-05-07 14:46 43.68049 22.70542 28919 ft 483 kts 312°
2026-05-07 14:47 43.70464 22.67289 29321 ft 486 kts 312°
2026-05-07 14:47 43.72888 22.64021 29695 ft 488 kts 312°
2026-05-07 14:47 43.74536 22.61798 29931 ft 490 kts 312°
2026-05-07 14:47 43.76952 22.58533 30238 ft 493 kts 312°
2026-05-07 14:48 43.80238 22.54087 30625 ft 495 kts 311°
2026-05-07 14:48 43.81877 22.51868 30816 ft 496 kts 311°
2026-05-07 14:48 43.84347 22.48518 31109 ft 498 kts 311°
2026-05-07 14:48 43.86823 22.45156 31426 ft 497 kts 311°
2026-05-07 14:49 43.89292 22.41801 31792 ft 497 kts 311°
2026-05-07 14:49 43.91753 22.38448 32170 ft 495 kts 311°
2026-05-07 14:49 43.94179 22.35054 32526 ft 494 kts 310°
2026-05-07 14:49 43.96565 22.31640 32918 ft 492 kts 310°
2026-05-07 14:50 43.98934 22.28215 33250 ft 491 kts 310°
2026-05-07 14:50 44.01299 22.24789 33542 ft 491 kts 310°
2026-05-07 14:50 44.03664 22.21367 33839 ft 491 kts 310°
2026-05-07 14:50 44.06036 22.17940 34152 ft 490 kts 310°
2026-05-07 14:51 44.08401 22.14528 34443 ft 489 kts 310°
2026-05-07 14:51 44.10757 22.11130 34743 ft 488 kts 310°
2026-05-07 14:51 44.13111 22.07734 35001 ft 487 kts 310°
2026-05-07 14:51 44.15463 22.04335 35328 ft 486 kts 309°
2026-05-07 14:52 44.17810 22.00942 35545 ft 487 kts 309°
2026-05-07 14:52 44.20158 21.97538 35784 ft 486 kts 309°
2026-05-07 14:52 44.22468 21.94187 35980 ft 487 kts 309°
2026-05-07 14:52 44.24820 21.90768 36006 ft 489 kts 309°
2026-05-07 14:53 44.29523 21.83926 36041 ft 485 kts 309°
2026-05-07 14:53 44.34171 21.77149 36059 ft 482 kts 309°
2026-05-07 14:54 44.38795 21.70385 36055 ft 481 kts 309°
2026-05-07 14:54 44.43447 21.63561 36052 ft 487 kts 309°
2026-05-07 14:55 44.48147 21.56651 36045 ft 492 kts 309°
2026-05-07 14:55 44.52886 21.49668 36045 ft 496 kts 309°
2026-05-07 14:56 44.57630 21.42663 36029 ft 499 kts 309°
2026-05-07 14:56 44.62419 21.35572 36025 ft 501 kts 309°
2026-05-07 14:57 44.67209 21.28461 36020 ft 501 kts 309°
2026-05-07 14:57 44.72027 21.21352 36017 ft 503 kts 312°
2026-05-07 14:58 44.77525 21.15161 36019 ft 510 kts 322°
2026-05-07 14:58 44.83724 21.10253 36019 ft 514 kts 328°
2026-05-07 14:59 44.90049 21.05673 36005 ft 514 kts 329°
2026-05-07 14:59 44.96400 21.01031 36021 ft 514 kts 328°
2026-05-07 15:00 45.02723 20.96333 36008 ft 513 kts 328°
2026-05-07 15:00 45.09039 20.91603 36009 ft 513 kts 328°
2026-05-07 15:01 45.15345 20.86867 36011 ft 512 kts 328°
2026-05-07 15:01 45.21645 20.82128 36020 ft 512 kts 328°
2026-05-07 15:02 45.27940 20.77384 36016 ft 512 kts 327°
2026-05-07 15:02 45.34223 20.72636 36004 ft 511 kts 327°
2026-05-07 15:03 45.40505 20.67878 36005 ft 511 kts 327°
2026-05-07 15:03 45.46729 20.63150 36024 ft 510 kts 327°
2026-05-07 15:04 45.53001 20.58375 35993 ft 512 kts 327°
2026-05-07 15:04 45.59273 20.53587 36002 ft 510 kts 327°
2026-05-07 15:05 45.65521 20.48805 36006 ft 509 kts 327°
2026-05-07 15:05 45.71755 20.44023 36006 ft 508 kts 327°
2026-05-07 15:06 45.77981 20.39232 36018 ft 508 kts 327°
2026-05-07 15:06 45.84199 20.34436 36012 ft 507 kts 327°
2026-05-07 15:07 45.90379 20.29658 36008 ft 507 kts 327°
2026-05-07 15:07 45.96586 20.24846 36010 ft 507 kts 327°
2026-05-07 15:08 46.02794 20.20021 36024 ft 507 kts 327°
2026-05-07 15:08 46.09005 20.15181 36008 ft 507 kts 327°
2026-05-07 15:09 46.15220 20.10326 36009 ft 507 kts 327°
2026-05-07 15:09 46.21375 20.05459 36008 ft 507 kts 326°
2026-05-07 15:10 46.27544 20.00496 36008 ft 507 kts 326°
2026-05-07 15:10 46.33708 19.95521 36011 ft 507 kts 326°
2026-05-07 15:11 46.39873 19.90544 36019 ft 508 kts 326°
2026-05-07 15:11 46.46054 19.85548 36020 ft 509 kts 326°
2026-05-07 15:12 46.52245 19.80530 36021 ft 509 kts 326°
2026-05-07 15:12 46.58439 19.75496 36036 ft 510 kts 326°
2026-05-07 15:13 46.64634 19.70449 36019 ft 510 kts 326°
2026-05-07 15:13 46.70829 19.65387 36026 ft 510 kts 326°
2026-05-07 15:14 46.76971 19.60355 36019 ft 510 kts 326°
2026-05-07 15:14 46.83154 19.55275 36011 ft 510 kts 326°
2026-05-07 15:15 46.89345 19.50177 36018 ft 510 kts 325°
2026-05-07 15:15 46.95534 19.45066 36018 ft 511 kts 325°
2026-05-07 15:16 47.01722 19.39942 36020 ft 511 kts 325°
2026-05-07 15:16 47.07923 19.34792 36016 ft 513 kts 325°
2026-05-07 15:17 47.14143 19.29614 36039 ft 513 kts 325°
2026-05-07 15:17 47.17249 19.27023 35918 ft 516 kts 325°
2026-05-07 15:17 47.20382 19.24402 35439 ft 519 kts 324°
2026-05-07 15:18 47.23520 19.21778 34992 ft 517 kts 324°
2026-05-07 15:18 47.26642 19.19167 34548 ft 515 kts 324°
2026-05-07 15:18 47.29692 19.16554 34127 ft 511 kts 321°
2026-05-07 15:18 47.32455 19.13357 33637 ft 501 kts 309°
2026-05-07 15:19 47.34751 19.09553 33174 ft 492 kts 301°
2026-05-07 15:19 47.36616 19.05360 32696 ft 484 kts 291°
2026-05-07 15:19 47.38026 19.00876 32277 ft 484 kts 288°
2026-05-07 15:19 47.39394 18.96308 31824 ft 489 kts 288°
2026-05-07 15:20 47.40781 18.91710 31388 ft 491 kts 288°
2026-05-07 15:20 47.42189 18.87114 30914 ft 490 kts 288°
2026-05-07 15:20 47.43606 18.82543 30493 ft 490 kts 289°
2026-05-07 15:20 47.45029 18.77975 30048 ft 489 kts 289°
2026-05-07 15:21 47.46451 18.73411 29547 ft 488 kts 289°
2026-05-07 15:21 47.47876 18.68824 29057 ft 494 kts 289°
2026-05-07 15:21 47.49316 18.64176 28601 ft 499 kts 289°
2026-05-07 15:21 47.50761 18.59508 27987 ft 497 kts 289°
2026-05-07 15:22 47.52186 18.54906 27354 ft 488 kts 289°
2026-05-07 15:22 47.53567 18.50412 26667 ft 479 kts 288°
2026-05-07 15:22 47.54755 18.45867 26007 ft 468 kts 283°
2026-05-07 15:22 47.55718 18.41313 25363 ft 461 kts 282°
2026-05-07 15:23 47.56655 18.36803 24742 ft 456 kts 282°
2026-05-07 15:23 47.57582 18.32342 24136 ft 451 kts 283°
2026-05-07 15:23 47.58506 18.27915 23486 ft 449 kts 283°
2026-05-07 15:23 47.59433 18.23500 22755 ft 446 kts 283°
2026-05-07 15:24 47.60356 18.19114 22037 ft 444 kts 283°
2026-05-07 15:24 47.61274 18.14756 21342 ft 442 kts 283°
2026-05-07 15:24 47.62174 18.10477 20667 ft 439 kts 283°
2026-05-07 15:24 47.63079 18.06173 19993 ft 436 kts 282°
2026-05-07 15:25 47.63976 18.01894 19339 ft 433 kts 282°
2026-05-07 15:25 47.64866 17.97641 18696 ft 430 kts 282°
2026-05-07 15:25 47.65747 17.93417 18044 ft 427 kts 282°
2026-05-07 15:25 47.66619 17.89225 17341 ft 423 kts 282°
2026-05-07 15:26 47.67484 17.85060 16640 ft 420 kts 283°
2026-05-07 15:26 47.68339 17.80935 15933 ft 417 kts 283°
2026-05-07 15:26 47.69185 17.76841 15258 ft 413 kts 283°
2026-05-07 15:26 47.70022 17.72787 14674 ft 408 kts 284°
2026-05-07 15:27 47.70851 17.68761 14465 ft 408 kts 284°
2026-05-07 15:27 47.71661 17.64832 14382 ft 391 kts 284°
2026-05-07 15:27 47.72448 17.61004 13913 ft 385 kts 284°
2026-05-07 15:27 47.73225 17.57205 13253 ft 384 kts 284°
2026-05-07 15:28 47.74001 17.53406 12640 ft 383 kts 284°
2026-05-07 15:28 47.74633 17.49603 12200 ft 375 kts 275°
2026-05-07 15:28 47.74525 17.45797 11735 ft 367 kts 260°
2026-05-07 15:28 47.74165 17.42047 11653 ft 364 kts 261°
2026-05-07 15:29 47.73873 17.38352 11457 ft 355 kts 262°
2026-05-07 15:29 47.73616 17.34775 11365 ft 342 kts 263°
2026-05-07 15:29 47.73377 17.31376 11279 ft 329 kts 263°
2026-05-07 15:29 47.73142 17.28062 11181 ft 317 kts 263°
2026-05-07 15:30 47.72912 17.24832 10891 ft 312 kts 262°
2026-05-07 15:30 47.72682 17.21646 10591 ft 308 kts 263°
2026-05-07 15:30 47.72457 17.18512 10291 ft 303 kts 263°
2026-05-07 15:30 47.72232 17.15411 9998 ft 300 kts 263°
2026-05-07 15:31 47.72009 17.12352 9719 ft 295 kts 263°
2026-05-07 15:31 47.71819 17.09374 9575 ft 282 kts 269°
2026-05-07 15:31 47.72209 17.06551 9208 ft 285 kts 294°
2026-05-07 15:31 47.73392 17.04149 8632 ft 294 kts 315°
2026-05-07 15:32 47.75101 17.02436 8109 ft 300 kts 331°
2026-05-07 15:32 47.76964 17.01042 7734 ft 299 kts 332°
2026-05-07 15:32 47.78831 16.99659 7385 ft 298 kts 332°
2026-05-07 15:32 47.80683 16.98283 7062 ft 297 kts 332°
2026-05-07 15:33 47.82518 16.96908 6742 ft 294 kts 332°
2026-05-07 15:33 47.84120 16.95703 6469 ft 293 kts 332°
2026-05-07 15:33 47.85934 16.94331 6133 ft 291 kts 332°
2026-05-07 15:33 47.87725 16.92972 5854 ft 287 kts 332°
2026-05-07 15:34 47.89485 16.91631 5682 ft 279 kts 332°
2026-05-07 15:34 47.91192 16.90330 5517 ft 272 kts 332°
2026-05-07 15:34 47.92855 16.89059 5343 ft 265 kts 332°
2026-05-07 15:34 47.94476 16.87821 5178 ft 259 kts 332°
2026-05-07 15:35 47.95540 16.87007 5110 ft 262 kts 332°
2026-05-07 15:35 47.97183 16.85748 5066 ft 268 kts 332°
2026-05-07 15:35 47.98860 16.84463 5035 ft 272 kts 332°
2026-05-07 15:35 48.00537 16.83177 4998 ft 270 kts 332°
2026-05-07 15:36 48.02203 16.81898 4986 ft 268 kts 332°
2026-05-07 15:36 48.03855 16.80629 4986 ft 266 kts 332°
2026-05-07 15:36 48.05496 16.79368 4988 ft 265 kts 332°
2026-05-07 15:36 48.07137 16.78105 4987 ft 265 kts 332°
2026-05-07 15:37 48.08800 16.76825 5006 ft 271 kts 332°
2026-05-07 15:37 48.10490 16.75523 5004 ft 274 kts 332°
2026-05-07 15:37 48.12159 16.74238 4987 ft 273 kts 332°
2026-05-07 15:37 48.13864 16.72922 4990 ft 271 kts 332°
2026-05-07 15:38 48.15542 16.71626 4990 ft 271 kts 332°
2026-05-07 15:38 48.17196 16.70348 4995 ft 270 kts 332°
2026-05-07 15:38 48.18867 16.69056 4995 ft 270 kts 332°
2026-05-07 15:38 48.20542 16.67761 4995 ft 271 kts 332°
2026-05-07 15:39 48.22220 16.66473 4996 ft 269 kts 334°
2026-05-07 15:39 48.23982 16.65519 5001 ft 269 kts 344°
2026-05-07 15:39 48.25801 16.64803 4999 ft 271 kts 345°
2026-05-07 15:39 48.27634 16.64101 4997 ft 272 kts 345°
2026-05-07 15:40 48.29467 16.63374 5001 ft 273 kts 345°
2026-05-07 15:40 48.31304 16.62621 4995 ft 274 kts 344°
2026-05-07 15:40 48.33140 16.61855 4994 ft 274 kts 343°
2026-05-07 15:40 48.34952 16.61094 4992 ft 273 kts 343°
2026-05-07 15:41 48.36751 16.60337 4974 ft 262 kts 343°
2026-05-07 15:41 48.38459 16.59608 4971 ft 246 kts 340°
2026-05-07 15:41 48.39856 16.58390 4965 ft 223 kts 309°
2026-05-07 15:41 48.40502 16.56429 5014 ft 202 kts 276°
2026-05-07 15:42 48.40265 16.54447 4973 ft 187 kts 239°
2026-05-07 15:42 48.39465 16.52933 4983 ft 186 kts 233°
2026-05-07 15:42 48.38636 16.51421 4992 ft 187 kts 233°
2026-05-07 15:42 48.37807 16.49904 4978 ft 187 kts 233°
2026-05-07 15:43 48.36877 16.48528 4977 ft 193 kts 210°
2026-05-07 15:43 48.35547 16.48175 4997 ft 201 kts 175°
2026-05-07 15:43 48.34158 16.48540 5005 ft 206 kts 171°
2026-05-07 15:43 48.32752 16.49015 4795 ft 211 kts 167°
2026-05-07 15:44 48.31329 16.49585 4516 ft 206 kts 166°
2026-05-07 15:44 48.29964 16.50161 4229 ft 200 kts 166°
2026-05-07 15:44 48.28659 16.50716 3956 ft 195 kts 166°
2026-05-07 15:44 48.27375 16.51266 3728 ft 190 kts 164°
2026-05-07 15:45 48.26114 16.51807 3470 ft 187 kts 164°
2026-05-07 15:45 48.24868 16.52338 3219 ft 186 kts 164°
2026-05-07 15:45 48.23628 16.52867 2986 ft 183 kts 165°
2026-05-07 15:45 48.22408 16.53387 2750 ft 182 kts 164°
2026-05-07 15:46 48.20016 16.54404 2264 ft 168 kts 165°
2026-05-07 15:46 48.18921 16.54871 2053 ft 160 kts 165°
2026-05-07 15:46 48.17847 16.55327 1833 ft 160 kts 164°
2026-05-07 15:47 48.16797 16.55771 1614 ft 154 kts 164°
2026-05-07 15:47 48.15772 16.56209 1421 ft 153 kts 165°
2026-05-07 15:47 48.14755 16.56658 1211 ft 152 kts 166°
2026-05-07 15:47 48.13741 16.57078 996 ft 151 kts 167°
2026-05-07 15:48 48.12716 16.57496 772 ft 154 kts 165°
2026-05-07 15:48 48.11683 16.57945 636 ft 151 kts 167°
2026-05-07 15:48 48.10781 16.58323 627 ft 113 kts 163°
2026-05-07 15:48 48.10187 16.58570 621 ft 61 kts 163°
2026-05-07 15:49 48.09907 16.58610 618 ft 34 kts 189°
2026-05-07 15:49 48.09690 16.58555 619 ft 27 kts 197°
2026-05-07 15:49 48.09656 16.58395 627 ft 16 kts 313°
2026-05-07 15:49 48.09759 16.58335 623 ft 16 kts 343°
2026-05-07 15:50 48.09867 16.58291 626 ft 16 kts 345°
2026-05-07 15:50 48.09974 16.58248 618 ft 16 kts 345°
2026-05-07 15:50 48.10081 16.58203 626 ft 16 kts 343°
2026-05-07 15:50 48.10188 16.58156 625 ft 16 kts 343°
2026-05-07 15:51 48.10295 16.58110 627 ft 16 kts 344°
2026-05-07 15:51 48.10404 16.58063 622 ft 19 kts 344°
2026-05-07 15:51 48.10562 16.57997 619 ft 25 kts 344°
2026-05-07 15:51 48.10730 16.57926 626 ft 25 kts 344°
2026-05-07 15:52 48.10897 16.57855 629 ft 25 kts 344°
2026-05-07 15:52 48.11065 16.57785 626 ft 25 kts 344°
2026-05-07 15:52 48.11188 16.57620 625 ft 25 kts 297°
2026-05-07 15:52 48.11264 16.57386 626 ft 25 kts 296°
2026-05-07 15:53 48.11340 16.57152 621 ft 25 kts 296°
2026-05-07 15:53 48.11416 16.56919 620 ft 25 kts 296°
2026-05-07 15:53 48.11492 16.56685 619 ft 25 kts 296°
2026-05-07 15:53 48.11570 16.56453 621 ft 25 kts 296°
2026-05-07 15:54 48.11644 16.56221 617 ft 25 kts 296°
2026-05-07 15:54 48.11720 16.55988 626 ft 24 kts 296°
2026-05-07 15:54 48.11802 16.55828 625 ft 9 kts
2026-05-07 15:54 48.11856 16.55872 625 ft 9 kts 28°
2026-05-07 15:55 48.11885 16.55936 629 ft 8 kts 117°
2026-05-07 15:55 48.11859 16.55986 624 ft 0 kts 127°